TimeAKST,TemperatureF,Dew PointF,Humidity,Sea Level PressureIn,VisibilityMPH,Wind Direction,Wind SpeedMPH,Gust SpeedMPH,PrecipitationIn,Events,Conditions,WindDirDegrees,DateUTC
12:53 AM,-20.0,-25.1,78,29.73,10.0,NNE,3.5,-,N/A,,Clear,30,2013-02-27 09:53:00
1:53 AM,-20.9,-26.0,77,29.70,10.0,Calm,Calm,-,N/A,,Clear,0,2013-02-27 10:53:00
3:53 AM,-18.0,-23.1,78,29.67,10.0,Calm,Calm,-,N/A,,Clear,0,2013-02-27 12:53:00
4:53 AM,-18.9,-26.0,70,29.65,10.0,Calm,Calm,-,N/A,,Clear,0,2013-02-27 13:53:00
5:53 AM,-20.0,-26.0,74,29.64,10.0,Calm,Calm,-,N/A,,Clear,0,2013-02-27 14:53:00
6:53 AM,-20.9,-27.0,73,29.62,10.0,Calm,Calm,-,N/A,,Clear,0,2013-02-27 15:53:00
7:53 AM,-22.0,-27.0,77,29.60,10.0,Calm,Calm,-,N/A,,Clear,0,2013-02-27 16:53:00
8:53 AM,-24.0,-29.0,77,29.59,10.0,Calm,Calm,-,N/A,,Clear,0,2013-02-27 17:53:00
9:53 AM,-22.0,-27.0,77,29.59,10.0,ENE,3.5,-,N/A,,Clear,60,2013-02-27 18:53:00
10:53 AM,-20.9,-25.1,81,29.57,10.0,Calm,Calm,-,N/A,,Clear,0,2013-02-27 19:53:00
11:53 AM,-18.0,-23.1,78,29.56,10.0,Calm,Calm,-,N/A,,Mostly Cloudy,0,2013-02-27 20:53:00
12:53 PM,-17.0,-23.1,74,29.57,10.0,West,3.5,-,N/A,,Clear,280,2013-02-27 21:53:00
1:53 PM,-14.1,-20.9,71,29.56,10.0,Calm,Calm,-,N/A,,Clear,0,2013-02-27 22:53:00
2:53 PM,-11.0,-18.9,68,29.53,10.0,Calm,Calm,-,0.00,,Scattered Clouds,0,2013-02-27 23:53:00
3:53 PM,-11.9,-18.0,74,29.51,10.0,Calm,Calm,-,N/A,,Clear,0,2013-02-28 00:53:00
4:53 PM,-9.0,-17.0,68,29.49,10.0,Calm,Calm,-,N/A,,Clear,0,2013-02-28 01:53:00
5:53 PM,-11.0,-18.0,71,29.48,10.0,North,3.5,-,N/A,,Clear,350,2013-02-28 02:53:00
6:53 PM,-13.0,-18.9,75,29.47,10.0,WSW,3.5,-,N/A,,Clear,250,2013-02-28 03:53:00
7:53 PM,-14.1,-18.9,79,29.47,10.0,WNW,3.5,-,N/A,,Clear,300,2013-02-28 04:53:00
8:53 PM,-13.0,-18.9,75,29.45,10.0,Calm,Calm,-,N/A,,Clear,0,2013-02-28 05:53:00
9:53 PM,-14.1,-18.9,79,29.45,10.0,SSW,3.5,-,N/A,,Clear,210,2013-02-28 06:53:00
10:53 PM,-13.0,-20.0,71,29.44,10.0,Calm,Calm,-,N/A,,Clear,0,2013-02-28 07:53:00
11:53 PM,-11.9,-18.0,74,29.44,10.0,Calm,Calm,-,N/A,,Clear,0,2013-02-28 08:53:00